User: anonymous   Login
Location: Kelowna
(49.8880°N, 119.4960°W)
Time: 04:39:53
(UTC-07:00)
Language:

BEESAT - Orbit

View from above orbital plane
View from above orbital plane
View from above satellite
View from above satellite

Ground track
Ground track

The orbit data is extracted from the following two-line orbital elements,

1 35933U 09051C   25173.13999358  .00000614  00000-0  13595-3 0  9990
2 35933  98.4225  69.9418 0004028 267.6238  92.4501 14.60773894836603
Epoch (UTC): 22 June 2025 03:21:35
Eccentricity: 0.0004028
inclination: 98.4225°
perigee height: 688 km
apogee height: 693 km
right ascension of ascending node: 69.9418°
argument of perigee: 267.6238°
revolutions per day: 14.60773894
mean anomaly at epoch: 92.4501°
orbit number at epoch: 83660

The dashed part of the orbit path shows where the satellite is in the earth's shadow,  

DLR